[Iaude] MPEC C68: 2024 CZ [a=1.01,e=0.05,i=10.4,H=26.6]

mpec at cfa.harvard.edu mpec at cfa.harvard.edu
Tue Feb 6 17:05:14 EST 2024


M.P.E.C. 2024-C68                              Issued 2024 February 6, 22:03 UT

     The Minor Planet Electronic Circulars contain information on unusual
         minor planets, routine data on comets and natural satellites,
         and occasional editorial announcements.  They are published
    on behalf of Division F of the International Astronomical Union by the
          Minor Planet Center, Smithsonian Astrophysical Observatory,
                          Cambridge, MA 02138, U.S.A.
			  
             Prepared using the Tamkin Foundation Computer Network

                              MPC at CFA.HARVARD.EDU
            URL https://www.minorplanetcenter.net/    ISSN 1523-6714

                                    2024 CZ                                     


Observations:
     K24C00Z*1C2024 02 05.39779011 18 16.114+12 15 04.14         19.76GVEC068G96
     K24C00Z 1C2024 02 05.40343311 18 16.787+12 17 02.08               VEC068G96
     K24C00Z 1C2024 02 05.40907611 18 17.449+12 19 00.30         20.27GVEC068G96
     K24C00Z 1C2024 02 05.41471911 18 18.097+12 20 57.62         20.11GVEC068G96
     K24C00Z  C2024 02 05.44425511 18 20.707+12 31 03.68         20.4 GVEC068H01
     K24C00Z  C2024 02 05.44807111 18 21.185+12 32 22.79         20.7 GVEC068H01
     K24C00Z  C2024 02 05.45787911 18 22.417+12 35 45.86         20.5 GVEC068H01
     K24C00Z  C2024 02 05.46603811 18 23.457+12 38 34.53         20.4 GVEC068H01
     K24C00Z KC2024 02 05.49207411 18 27.565+12 47 40.27         20.68GVEC068I52
     K24C00Z KC2024 02 05.49269111 18 27.684+12 47 53.70         20.81GVEC068I52
     K24C00Z KC2024 02 05.49330811 18 27.724+12 48 05.90         20.67GVEC068I52
     K24C00Z KC2024 02 05.49392611 18 27.839+12 48 18.54         19.94GVEC068I52
     K24C00Z 1C2024 02 05.89970 11 20 16.16 +15 06 35.0          20.0 VXEC068033
     K24C00Z 1C2024 02 05.90046 11 20 16.28 +15 06 50.9          19.3 VXEC068033
     K24C00Z 1C2024 02 05.90121 11 20 16.40 +15 07 06.4          19.1 VXEC068033
     K24C00Z 1C2024 02 05.90202 11 20 16.50 +15 07 22.8          19.3 VXEC068033
     K24C00Z KC2024 02 06.28685911 21 35.22 +17 19 20.8          20.6 GVEC068H21
     K24C00Z KC2024 02 06.29021711 21 35.67 +17 20 29.1          20.2 GVEC068H21
     K24C00Z KC2024 02 06.30066411 21 37.02 +17 24 01.8          20.5 GVEC068H21
     K24C00Z KC2024 02 06.30346011 21 37.34 +17 24 58.3          20.9 GVEC068H21

Observer details:
033 Karl Schwarzschild Observatory, Tautenburg.  Observers S. Melnikov, C.
    Hogner, F. Ludwig, M. Hartmann, B. Stecklum.  Measurer B. Stecklum.
    1.34-m f/3 Schmidt + CCD.
G96 Mt. Lemmon Survey.  Observers V. F. Carvajal, D. Rankin.  Measurers T.
    Beuden, V. F. Carvajal, D. Fay, J. B. Fazekas, D. C. Fuls, A. R. Gibbs, A.
    D. Grauer, H. Groeller, J. K. Hogan, R. A. Kowalski, S. M. Larson, G. J.
    Leonard, D. Rankin, R. L. Seaman, F. C. Shelly, K. W. Wierzchos.  1.5-m
    reflector + 10K CCD.
H01 Magdalena Ridge Observatory, Socorro.  Observers W. H. Ryan, E. V. Ryan.
    Measurer W. H. Ryan.  2.4-m f/8.9 Ritchey-Chretien + CCD.
H21 Astronomical Research Observatory, Westfield.  Observer R. Holmes.
    Measurers T. Linder, R. Holmes, L. Horn.  0.76-m f/3.0 astrograph + CCD.
I52 Steward Observatory, Mt. Lemmon Station.  Observer H. Groeller.  Measurers
    E. C. Beshore, D. Fay, J. B. Fazekas, D. C. Fuls, A. R. Gibbs, A. D.
    Grauer, H. Groeller, J. K. Hogan, R. A. Kowalski, S. M. Larson, G. J.
    Leonard, D. Rankin, R. L. Seaman, F. C. Shelly, K. W. Wierzchos.  1.0-m
    prime focus + CCD.

Orbital elements:
2024 CZ                                                  Earth MOID = 0.0136 AU
Epoch 2023 Sept. 13.0 TT = JDT 2460200.5                Bell                    
M 310.90907              (2000.0)            P               Q                  
n   0.97356117     Peri.  263.19147     +0.76894545     -0.62663360             
a   1.0082322      Node   135.51013     +0.63436945     +0.72326214             
e   0.0479638      Incl.   10.41634     +0.07936184     +0.29021062             
P   1.01           H   26.68          G   0.15           U   7                  
Residuals in seconds of arc
240205 G96  0.3-  0.8-    240205 H01  0.2+  0.1+    240205 033  0.1+  0.1+
240205 G96  0.1-  0.5-    240205 I52  0.4-  0.3-    240205 033  0.5-  0.3-
240205 G96  0.1-  0.1+    240205 I52  0.2+  0.4+    240206 H21  0.2-  0.1+
240205 G96  0.3-  0.1-    240205 I52  0.4-  0.2-    240206 H21  0.0   0.0
240205 H01  0.0   0.1+    240205 I52  0.1+  0.3-    240206 H21  0.3+  0.1+
240205 H01  0.1+  0.2+    240205 033  0.5+  0.1+    240206 H21  0.1-  0.2-
240205 H01  0.2+  0.2+    240205 033  0.3+  0.2+

Ephemeris:
2024 CZ                  a,e,i = 1.01, 0.05, 10                  q = 0.9599
Date    TT    R. A. (2000) Decl.     Delta      r    Elong.  Phase     V
2024 01 07    09 40 49.0 -61 12 56   0.09140 0.9890    90.9    83.8    24.4
...
2024 01 22    10 26 01.3 -46 11 22   0.05214 1.0009   107.4    69.7    22.7
...
2024 01 30    10 54 34.3 -22 16 36   0.03516 1.0075   129.1    49.4    21.3
...
2024 02 05    11 16 47.7 +09 57 50   0.03086 1.0124   148.8    30.3    20.5
2024 02 06    11 20 27.4 +15 43 40   0.03127 1.0132   149.9    29.2    20.5
2024 02 07    11 24 05.2 +21 17 10   0.03200 1.0140   149.9    29.2    20.5
...
2024 02 13    11 44 49.9 +46 54 33   0.04177 1.0187   138.2    40.3    21.4
...
2024 02 21    12 08 18.0 +63 11 25   0.06220 1.0248   123.9    53.2    22.7
...
2024 03 07    12 31 57.8 +72 51 33   0.1050  1.0351   111.3    63.3    24.1

M. P. C. Staff               (C) Copyright 2024 MPC           M.P.E.C. 2024-C68





More information about the Iaude mailing list